FW2152 Weather Reports


time (UTC)temp
C
wind
direction
speed
KPH
gust
KPH
rain 1hr
cm
rain 24hr
cm
rain mn
cm
humidity
%
barometer
mb
20260505223034 23 180 8.0 16.1 0.00 0.00 0.00 43 1013.6
20260505221532 23 180 8.0 17.7 0.00 0.00 0.00 43 1013.6
20260505220031 23 180 9.7 17.7 0.00 0.00 0.00 44 1013.7
20260505214531 23 180 8.0 20.9 0.00 0.00 0.00 44 1013.8
20260505213033 23 180 6.4 17.7 0.00 0.00 0.00 44 1013.9
20260505210145 22 180 6.4 19.3 0.00 0.00 0.00 46 1014.2
20260505204608 22 180 6.4 17.7 0.00 0.00 0.00 46 1014.3
20260505201529 22 180 3.2 16.1 0.00 0.00 0.00 48 1014.5
20260505200033 22 180 4.8 19.3 0.00 0.00 0.00 48 1014.6
20260505194530 21 180 4.8 22.5 0.00 0.00 0.00 49 1014.7
20260505191533 20 180 6.4 17.7 0.00 0.00 0.00 51 1014.9
20260505190031 20 180 8.0 22.5 0.00 0.00 0.00 52 1014.9
20260505184530 20 180 8.0 20.9 0.00 0.00 0.00 53 1015.0
20260505183031 19 180 8.0 20.9 0.00 0.00 0.00 56 1015.1
20260505181532 19 180 11.3 22.5 0.00 0.00 0.00 56 1015.1
20260505180146 19 180 11.3 20.9 0.00 0.00 0.00 57 1015.0
20260505174530 18 180 9.7 24.1 0.00 0.00 0.00 59 1015.0
20260505173031 18 180 11.3 20.9 0.00 0.00 0.00 60 1015.0
20260505171528 17 180 12.9 22.5 0.00 0.00 0.00 61 1014.9
20260505170034 17 180 12.9 22.5 0.00 0.00 0.00 62 1014.9
20260505164530 17 180 11.3 22.5 0.00 0.00 0.00 63 1014.9
20260505163030 16 180 12.9 25.7 0.00 0.00 0.00 64 1014.9
20260505161530 16 180 12.9 24.1 0.00 0.00 0.00 64 1014.9
20260505160149 16 180 11.3 24.1 0.00 0.00 0.00 66 1014.9
20260505153030 15 180 11.3 20.9 0.00 0.00 0.00 67 1014.6
20260505124530 15 180 11.3 22.5 0.00 0.00 0.00 71 1012.8
20260505123031 15 180 9.7 20.9 0.00 0.00 0.00 70 1012.8
20260505121532 15 180 11.3 20.9 0.00 0.00 0.00 70 1012.7
20260505120030 15 180 9.7 24.1 0.00 0.00 0.00 70 1012.6
20260505114528 15 180 11.3 24.1 0.00 0.00 0.00 70 1012.5
20260505113032 15 180 11.3 25.7 0.00 0.00 0.00 69 1012.3
20260505111531 16 180 12.9 32.2 0.00 0.00 0.00 69 1012.2
20260505101532 16 180 12.9 35.4 0.00 0.00 0.00 68 1011.8
20260505093027 16 180 11.3 29.0 0.00 0.00 0.00 67 1011.7
20260505091534 17 180 9.7 25.7 0.00 0.00 0.00 66 1011.7
20260505090030 17 180 9.7 22.5 0.00 0.00 0.00 65 1011.6
20260505084533 17 180 9.7 19.3 0.00 0.00 0.00 63 1011.6
20260505083029 18 180 11.3 27.4 0.00 0.00 0.00 62 1011.6
20260505081528 18 180 8.0 19.3 0.00 0.00 0.00 61 1011.5
20260505074606 18 180 11.3 22.5 0.00 0.00 0.00 60 1011.4
20260505073036 18 180 11.3 20.9 0.00 0.00 0.00 60 1011.4
20260505071645 18 180 9.7 24.1 0.00 0.00 0.00 60 1011.3
20260505070108 18 180 9.7 22.5 0.00 0.00 0.00 59 1011.2
20260505064527 19 180 6.4 17.7 0.00 0.00 0.00 58 1011.1
20260505061533 19 180 11.3 29.0 0.00 0.00 0.00 56 1010.8
20260505054530 20 180 9.7 25.7 0.00 0.00 0.00 54 1010.7
20260505053106 20 180 6.4 17.7 0.00 0.00 0.00 52 1010.7
20260505034605 21 180 4.8 20.9 0.00 0.00 0.00 47 1009.7
20260505031528 22 180 3.2 19.3 0.00 0.00 0.00 46 1009.4
20260505030033 22 180 6.4 22.5 0.00 0.00 0.00 46 1009.2
20260505024532 22 180 4.8 17.7 0.00 0.00 0.00 45 1009.1
20260505023031 23 180 6.4 20.9 0.00 0.00 0.00 45 1009.1
20260505021531 23 180 3.2 14.5 0.00 0.00 0.00 45 1009.1
20260505020029 23 180 6.4 22.5 0.00 0.00 0.00 44 1009.0
20260505014607 24 180 9.7 24.1 0.00 0.00 0.00 42 1009.0
20260505013030 24 180 12.9 25.7 0.00 0.00 0.00 41 1008.9
20260505011532 25 180 12.9 29.0 0.00 0.00 0.00 41 1008.9
20260505010107 25 180 11.3 27.4 0.00 0.00 0.00 41 1008.9
20260505004530 25 180 9.7 27.4 0.00 0.00 0.00 39 1008.9
20260505003031 25 180 12.9 25.7 0.00 0.00 0.00 38 1008.9
20260505000148 26 180 11.3 27.4 0.00 0.00 0.00 38 1009.1
20260504234607 26 180 12.9 30.6 0.00 0.00 0.00 38 1009.2
20260504233051 -17 0 0.0 0.0 0.00 0.00 0.00 100